Time,TemperatureF,DewpointF,PressureIn,WindDirection,WindDirectionDegrees,WindSpeedMPH,WindSpeedGustMPH,Humidity,HourlyPrecipIn,Conditions,Clouds,dailyrainin,SoftwareType,DateUTC
2013-02-27 00:02:00,36.0,36.0,29.52,East,101,6.0,15.0,99,0.00,,,0.50,,2013-02-27 05:02:00,
2013-02-27 00:12:00,36.0,36.0,29.52,East,101,6.0,15.0,99,0.00,,,0.50,,2013-02-27 05:12:00,
2013-02-27 00:22:00,36.0,36.0,29.52,East,85,0.0,8.0,99,0.00,,,0.50,,2013-02-27 05:22:00,
2013-02-27 00:32:00,36.0,36.0,29.52,East,85,0.0,8.0,99,0.00,,,0.50,,2013-02-27 05:32:00,
2013-02-27 00:42:00,36.0,36.0,29.52,East,85,0.0,8.0,99,0.00,,,0.50,,2013-02-27 05:42:00,
2013-02-27 00:52:00,36.0,36.0,29.52,East,91,9.0,15.0,99,0.00,,,0.50,,2013-02-27 05:52:00,
2013-02-27 01:02:00,36.0,36.0,29.52,East,94,5.0,12.0,99,0.00,,,0.50,,2013-02-27 06:02:00,
2013-02-27 01:11:00,36.0,36.0,29.52,East,94,5.0,12.0,99,0.00,,,0.50,,2013-02-27 06:11:00,
2013-02-27 01:21:00,36.0,36.0,29.52,East,90,6.0,13.0,99,0.00,,,0.50,,2013-02-27 06:21:00,
2013-02-27 01:33:00,36.0,36.0,29.52,ESE,109,7.0,10.0,99,0.00,,,0.50,,2013-02-27 06:33:00,
2013-02-27 01:42:00,36.0,36.0,29.52,ESE,109,7.0,10.0,99,0.00,,,0.50,,2013-02-27 06:42:00,
2013-02-27 01:52:00,36.0,36.0,29.52,SSE,164,5.0,11.0,99,0.00,,,0.50,,2013-02-27 06:52:00,
2013-02-27 02:01:00,36.0,36.0,29.52,East,80,6.0,8.0,99,0.00,,,0.50,,2013-02-27 07:01:00,
2013-02-27 02:12:00,36.0,36.0,29.52,East,80,6.0,8.0,99,0.00,,,0.50,,2013-02-27 07:12:00,
2013-02-27 02:21:00,36.0,36.0,29.52,ENE,64,14.0,14.0,99,0.00,,,0.50,,2013-02-27 07:21:00,
2013-02-27 02:32:00,36.0,36.0,29.52,SE,130,0.0,10.0,99,0.00,,,0.50,,2013-02-27 07:32:00,
2013-02-27 02:42:00,36.0,36.0,29.52,SE,130,0.0,10.0,99,0.00,,,0.50,,2013-02-27 07:42:00,
2013-02-27 02:52:00,36.0,36.0,29.52,ENE,60,0.0,3.0,99,0.00,,,0.50,,2013-02-27 07:52:00,
2013-02-27 03:01:00,36.0,36.0,29.52,ESE,106,4.0,6.0,99,0.00,,,0.50,,2013-02-27 08:01:00,
2013-02-27 03:11:00,36.0,36.0,29.52,ESE,106,4.0,6.0,99,0.00,,,0.50,,2013-02-27 08:11:00,
2013-02-27 03:21:00,36.0,36.0,29.51,North,5,4.0,6.0,99,0.00,,,0.50,,2013-02-27 08:21:00,
2013-02-27 03:32:00,36.0,36.0,29.51,ENE,73,0.0,9.0,99,0.00,,,0.50,,2013-02-27 08:32:00,
2013-02-27 03:42:00,36.0,36.0,29.51,ENE,73,0.0,9.0,99,0.00,,,0.50,,2013-02-27 08:42:00,
2013-02-27 03:53:00,36.0,36.0,29.51,ENE,74,3.0,4.0,99,0.00,,,0.50,,2013-02-27 08:53:00,
2013-02-27 04:02:00,36.0,36.0,29.51,ESE,105,3.0,9.0,99,0.00,,,0.50,,2013-02-27 09:02:00,
2013-02-27 04:12:00,36.0,36.0,29.51,ESE,105,3.0,9.0,99,0.00,,,0.50,,2013-02-27 09:12:00,
2013-02-27 04:22:00,36.0,36.0,29.50,ENE,70,0.0,0.0,99,0.00,,,0.50,,2013-02-27 09:22:00,
2013-02-27 04:32:00,36.0,36.0,29.51,East,84,0.0,5.0,99,0.00,,,0.50,,2013-02-27 09:32:00,
2013-02-27 04:41:00,36.0,36.0,29.51,East,84,0.0,5.0,99,0.00,,,0.50,,2013-02-27 09:41:00,
2013-02-27 04:52:00,36.0,36.0,29.51,ESE,102,0.0,0.0,99,0.00,,,0.50,,2013-02-27 09:52:00,
2013-02-27 05:01:00,36.0,36.0,29.52,ESE,104,0.0,6.0,99,0.00,,,0.50,,2013-02-27 10:01:00,
2013-02-27 05:12:00,36.0,36.0,29.52,ESE,104,0.0,6.0,99,0.00,,,0.50,,2013-02-27 10:12:00,
2013-02-27 05:22:00,36.0,36.0,29.52,East,85,0.0,0.0,99,0.00,,,0.50,,2013-02-27 10:22:00,
2013-02-27 05:32:00,36.0,36.0,29.53,East,85,0.0,0.0,99,0.00,,,0.50,,2013-02-27 10:32:00,
2013-02-27 05:42:00,36.0,36.0,29.53,East,85,0.0,0.0,99,0.00,,,0.50,,2013-02-27 10:42:00,
2013-02-27 05:53:00,36.0,36.0,29.53,East,85,0.0,0.0,99,0.00,,,0.50,,2013-02-27 10:53:00,
2013-02-27 06:02:00,37.0,37.0,29.53,East,85,0.0,0.0,99,0.00,,,0.50,,2013-02-27 11:02:00,
2013-02-27 06:12:00,37.0,37.0,29.53,East,85,0.0,0.0,99,0.00,,,0.50,,2013-02-27 11:12:00,
2013-02-27 06:22:00,37.0,37.0,29.53,East,85,0.0,0.0,99,0.00,,,0.50,,2013-02-27 11:22:00,
2013-02-27 06:32:00,37.0,37.0,29.54,East,85,0.0,0.0,99,0.00,,,0.50,,2013-02-27 11:32:00,
2013-02-27 06:42:00,37.0,37.0,29.54,East,85,0.0,0.0,99,0.00,,,0.50,,2013-02-27 11:42:00,
2013-02-27 06:52:00,37.0,37.0,29.54,East,85,0.0,0.0,99,0.00,,,0.50,,2013-02-27 11:52:00,
2013-02-27 07:02:00,37.0,37.0,29.54,East,85,0.0,0.0,99,0.00,,,0.50,,2013-02-27 12:02:00,
2013-02-27 07:13:00,37.0,37.0,29.54,East,85,0.0,0.0,99,0.00,,,0.50,,2013-02-27 12:13:00,
2013-02-27 07:22:00,37.0,37.0,29.55,East,85,0.0,0.0,99,0.00,,,0.50,,2013-02-27 12:22:00,
2013-02-27 07:33:00,37.0,37.0,29.55,East,85,0.0,0.0,99,0.00,,,0.50,,2013-02-27 12:33:00,
2013-02-27 07:42:00,37.0,37.0,29.55,East,85,0.0,0.0,99,0.00,,,0.50,,2013-02-27 12:42:00,
2013-02-27 07:53:00,38.0,38.0,29.55,East,85,0.0,0.0,99,0.00,,,0.50,,2013-02-27 12:53:00,
2013-02-27 08:02:00,38.0,38.0,29.56,East,85,0.0,0.0,99,0.00,,,0.50,,2013-02-27 13:02:00,
2013-02-27 08:11:00,38.0,38.0,29.56,East,85,0.0,0.0,99,0.00,,,0.50,,2013-02-27 13:11:00,
2013-02-27 08:22:00,38.0,38.0,29.57,SSW,198,3.0,5.0,99,0.00,,,0.50,,2013-02-27 13:22:00,
2013-02-27 08:32:00,38.0,38.0,29.57,South,172,0.0,7.0,99,0.00,,,0.50,,2013-02-27 13:32:00,
2013-02-27 08:42:00,38.0,38.0,29.57,South,172,0.0,7.0,99,0.00,,,0.50,,2013-02-27 13:42:00,
2013-02-27 08:52:00,38.0,38.0,29.57,SSW,194,3.0,3.0,99,0.00,,,0.50,,2013-02-27 13:52:00,
2013-02-27 09:02:00,38.0,38.0,29.58,SSE,153,0.0,7.0,99,0.00,,,0.50,,2013-02-27 14:02:00,
2013-02-27 09:12:00,38.0,38.0,29.58,SSE,153,0.0,7.0,99,0.00,,,0.50,,2013-02-27 14:12:00,
2013-02-27 09:22:00,38.0,38.0,29.58,SSW,198,0.0,4.0,99,0.00,,,0.50,,2013-02-27 14:22:00,
2013-02-27 09:32:00,38.0,38.0,29.58,SE,146,3.0,6.0,99,0.00,,,0.50,,2013-02-27 14:32:00,
2013-02-27 09:42:00,38.0,38.0,29.58,SE,146,3.0,6.0,99,0.00,,,0.50,,2013-02-27 14:42:00,
2013-02-27 09:52:00,37.0,37.0,29.58,SSW,198,4.0,4.0,99,0.01,,,0.51,,2013-02-27 14:52:00,
2013-02-27 10:02:00,38.0,38.0,29.59,SSE,158,0.0,8.0,99,0.01,,,0.51,,2013-02-27 15:02:00,
2013-02-27 10:12:00,38.0,38.0,29.59,SSE,158,0.0,8.0,99,0.01,,,0.51,,2013-02-27 15:12:00,
2013-02-27 10:22:00,38.0,38.0,29.59,SW,222,0.0,6.0,99,0.01,,,0.48,,2013-02-27 15:22:00,
2013-02-27 10:32:00,38.0,38.0,29.59,SW,222,0.0,6.0,99,0.01,,,0.48,,2013-02-27 15:32:00,
2013-02-27 10:42:00,38.0,38.0,29.59,SW,222,0.0,6.0,99,0.01,,,0.48,,2013-02-27 15:42:00,
2013-02-27 10:52:00,38.0,38.0,29.59,SSW,201,4.0,8.0,99,0.00,,,0.48,,2013-02-27 15:52:00,
2013-02-27 11:02:00,38.0,38.0,29.59,SW,227,2.0,6.0,99,0.00,,,0.48,,2013-02-27 16:02:00,
2013-02-27 11:12:00,38.0,38.0,29.59,SW,227,2.0,6.0,99,0.00,,,0.48,,2013-02-27 16:12:00,
2013-02-27 11:22:00,38.0,38.0,29.59,South,170,0.0,6.0,99,0.00,,,0.46,,2013-02-27 16:22:00,
2013-02-27 11:32:00,39.0,39.0,29.59,SW,234,2.0,10.0,99,0.00,,,0.46,,2013-02-27 16:32:00,
2013-02-27 11:42:00,39.0,39.0,29.59,SW,234,2.0,10.0,99,0.00,,,0.46,,2013-02-27 16:42:00,
2013-02-27 11:52:00,39.0,39.0,29.59,South,170,2.0,12.0,99,0.00,,,0.46,,2013-02-27 16:52:00,
2013-02-27 12:02:00,39.0,39.0,29.59,SW,215,4.0,10.0,99,0.00,,,0.46,,2013-02-27 17:02:00,
2013-02-27 12:11:00,39.0,39.0,29.59,SW,215,4.0,10.0,99,0.00,,,0.46,,2013-02-27 17:11:00,
2013-02-27 12:21:00,39.0,39.0,29.59,SSW,212,5.0,12.0,99,0.00,,,0.45,,2013-02-27 17:21:00,
2013-02-27 12:32:00,39.0,39.0,29.59,SE,132,2.0,9.0,99,0.00,,,0.45,,2013-02-27 17:32:00,
2013-02-27 12:42:00,39.0,39.0,29.59,SE,132,2.0,9.0,99,0.00,,,0.45,,2013-02-27 17:42:00,
2013-02-27 12:52:00,39.0,39.0,29.59,SW,215,5.0,8.0,99,0.00,,,0.45,,2013-02-27 17:52:00,
2013-02-27 13:02:00,39.0,39.0,29.59,SSE,164,3.0,6.0,99,0.00,,,0.45,,2013-02-27 18:02:00,
2013-02-27 13:11:00,39.0,39.0,29.59,SSE,164,3.0,6.0,99,0.00,,,0.45,,2013-02-27 18:11:00,
2013-02-27 13:22:00,39.0,39.0,29.59,SW,225,7.0,9.0,99,0.00,,,0.45,,2013-02-27 18:22:00,
2013-02-27 13:32:00,39.0,39.0,29.59,SSE,161,0.0,7.0,99,0.00,,,0.45,,2013-02-27 18:32:00,
2013-02-27 13:42:00,39.0,39.0,29.59,SSE,161,0.0,7.0,99,0.00,,,0.45,,2013-02-27 18:42:00,
2013-02-27 13:52:00,39.0,39.0,29.59,South,170,3.0,6.0,99,0.00,,,0.45,,2013-02-27 18:52:00,
2013-02-27 14:01:00,39.0,39.0,29.59,South,171,0.0,5.0,99,0.00,,,0.45,,2013-02-27 19:01:00,
2013-02-27 14:12:00,39.0,39.0,29.59,South,171,0.0,5.0,99,0.00,,,0.45,,2013-02-27 19:12:00,
2013-02-27 14:21:00,39.0,39.0,29.59,SSE,167,0.0,5.0,99,0.00,,,0.44,,2013-02-27 19:21:00,
2013-02-27 14:32:00,39.0,39.0,29.58,South,187,0.0,6.0,99,0.00,,,0.44,,2013-02-27 19:32:00,
2013-02-27 14:42:00,39.0,39.0,29.58,South,187,0.0,6.0,99,0.00,,,0.44,,2013-02-27 19:42:00,
2013-02-27 14:52:00,39.0,39.0,29.59,South,182,0.0,0.0,99,0.00,,,0.44,,2013-02-27 19:52:00,
2013-02-27 15:01:00,39.0,39.0,29.59,SSW,205,5.0,6.0,99,0.00,,,0.44,,2013-02-27 20:01:00,
2013-02-27 15:12:00,39.0,39.0,29.59,SSW,205,5.0,6.0,99,0.00,,,0.44,,2013-02-27 20:12:00,
2013-02-27 15:22:00,39.0,39.0,29.59,SW,219,4.0,4.0,99,0.00,,,0.20,,2013-02-27 20:22:00,
2013-02-27 15:32:00,39.0,39.0,29.59,SW,230,5.0,7.0,99,0.00,,,0.20,,2013-02-27 20:32:00,
2013-02-27 15:42:00,39.0,39.0,29.59,SW,230,5.0,7.0,99,0.00,,,0.20,,2013-02-27 20:42:00,
2013-02-27 15:52:00,39.0,39.0,29.59,SW,236,6.0,10.0,99,0.00,,,0.20,,2013-02-27 20:52:00,
2013-02-27 16:02:00,38.0,38.0,29.60,SSW,192,3.0,6.0,99,0.00,,,0.20,,2013-02-27 21:02:00,
2013-02-27 16:11:00,38.0,38.0,29.60,SSW,192,3.0,6.0,99,0.00,,,0.20,,2013-02-27 21:11:00,
2013-02-27 16:22:00,37.0,37.0,29.60,South,187,3.0,7.0,99,0.02,,,0.16,,2013-02-27 21:22:00,
2013-02-27 16:32:00,37.0,37.0,29.61,SSW,210,12.0,14.0,99,0.04,,,0.18,,2013-02-27 21:32:00,
2013-02-27 16:42:00,37.0,37.0,29.61,SSW,210,12.0,14.0,99,0.04,,,0.18,,2013-02-27 21:42:00,
2013-02-27 16:52:00,35.0,35.0,29.61,SW,232,6.0,7.0,99,0.05,,,0.19,,2013-02-27 21:52:00,
2013-02-27 17:01:00,35.0,35.0,29.61,SW,227,3.0,8.0,99,0.06,,,0.20,,2013-02-27 22:01:00,
2013-02-27 17:11:00,35.0,35.0,29.61,SW,227,3.0,8.0,99,0.06,,,0.20,,2013-02-27 22:11:00,
2013-02-27 17:21:00,35.0,35.0,29.61,SSW,206,5.0,7.0,99,0.06,,,0.09,,2013-02-27 22:21:00,
2013-02-27 17:32:00,35.0,35.0,29.61,SW,233,7.0,10.0,99,0.04,,,0.09,,2013-02-27 22:32:00,
2013-02-27 17:42:00,35.0,35.0,29.61,SW,233,7.0,10.0,99,0.04,,,0.09,,2013-02-27 22:42:00,
2013-02-27 17:51:00,34.0,34.0,29.62,SW,230,9.0,9.0,99,0.01,,,0.09,,2013-02-27 22:51:00,
2013-02-27 18:01:00,34.0,34.0,29.62,SSW,213,4.0,7.0,99,0.01,,,0.09,,2013-02-27 23:01:00,
2013-02-27 18:11:00,34.0,34.0,29.62,SSW,213,4.0,7.0,99,0.01,,,0.09,,2013-02-27 23:11:00,
2013-02-27 18:21:00,34.0,34.0,29.62,SW,234,5.0,6.0,99,0.00,,,0.08,,2013-02-27 23:21:00,
2013-02-27 18:32:00,34.0,34.0,29.62,SW,232,0.0,3.0,99,0.01,,,0.09,,2013-02-27 23:32:00,
2013-02-27 18:42:00,34.0,34.0,29.62,SW,232,0.0,3.0,99,0.01,,,0.09,,2013-02-27 23:42:00,
2013-02-27 18:52:00,33.0,33.0,29.62,SSW,213,4.0,4.0,99,0.01,,,0.09,,2013-02-27 23:52:00,
2013-02-27 19:02:00,33.0,33.0,29.63,SSW,213,0.0,4.0,99,0.01,,,0.09,,2013-02-28 00:02:00,
2013-02-27 19:12:00,33.0,33.0,29.63,SSW,213,0.0,4.0,99,0.01,,,0.09,,2013-02-28 00:12:00,
2013-02-27 19:21:00,33.0,33.0,29.63,SSW,206,3.0,4.0,99,0.01,,,0.09,,2013-02-28 00:21:00,
2013-02-27 19:32:00,33.0,33.0,29.64,SSE,161,0.0,0.0,99,0.00,,,0.09,,2013-02-28 00:32:00,
2013-02-27 19:42:00,33.0,33.0,29.64,SSE,161,0.0,0.0,99,0.00,,,0.09,,2013-02-28 00:42:00,
2013-02-27 19:52:00,33.0,33.0,29.64,SSW,196,0.0,2.0,99,0.00,,,0.09,,2013-02-28 00:52:00,
2013-02-27 20:01:00,33.0,33.0,29.63,SW,219,0.0,6.0,99,0.00,,,0.09,,2013-02-28 01:01:00,
2013-02-27 20:11:00,33.0,33.0,29.63,SW,219,0.0,6.0,99,0.00,,,0.09,,2013-02-28 01:11:00,
2013-02-27 20:22:00,33.0,33.0,29.63,SW,229,3.0,4.0,99,0.00,,,0.09,,2013-02-28 01:22:00,
2013-02-27 20:32:00,33.0,33.0,29.63,SW,236,0.0,0.0,99,0.00,,,0.09,,2013-02-28 01:32:00,
2013-02-27 20:42:00,33.0,33.0,29.63,SW,236,0.0,0.0,99,0.00,,,0.09,,2013-02-28 01:42:00,
2013-02-27 20:52:00,33.0,33.0,29.63,SSW,208,5.0,5.0,99,0.01,,,0.10,,2013-02-28 01:52:00,
2013-02-27 21:01:00,33.0,33.0,29.62,South,189,0.0,4.0,99,0.01,,,0.10,,2013-02-28 02:01:00,
2013-02-27 21:11:00,33.0,33.0,29.62,South,189,0.0,4.0,99,0.01,,,0.10,,2013-02-28 02:11:00,
2013-02-27 21:22:00,33.0,33.0,29.62,SSW,199,0.0,5.0,99,0.01,,,0.10,,2013-02-28 02:22:00,
2013-02-27 21:32:00,33.0,33.0,29.62,SSW,198,3.0,8.0,99,0.01,,,0.10,,2013-02-28 02:32:00,
2013-02-27 21:41:00,33.0,33.0,29.62,SSW,198,3.0,8.0,99,0.01,,,0.10,,2013-02-28 02:41:00,
2013-02-27 21:52:00,33.0,33.0,29.62,SSW,198,3.0,8.0,99,0.01,,,0.10,,2013-02-28 02:52:00,
2013-02-27 22:02:00,32.0,32.0,29.62,South,188,3.0,8.0,99,0.00,,,0.10,,2013-02-28 03:02:00,
2013-02-27 22:11:00,32.0,32.0,29.62,South,188,3.0,8.0,99,0.00,,,0.10,,2013-02-28 03:11:00,
2013-02-27 22:21:00,32.0,32.0,29.62,South,175,0.0,0.0,99,0.00,,,0.10,,2013-02-28 03:21:00,
2013-02-27 22:32:00,32.0,32.0,29.62,South,178,4.0,4.0,99,0.00,,,0.10,,2013-02-28 03:32:00,
2013-02-27 22:42:00,32.0,32.0,29.62,South,178,4.0,4.0,99,0.00,,,0.10,,2013-02-28 03:42:00,
2013-02-27 22:52:00,32.0,32.0,29.61,South,175,4.0,6.0,99,0.00,,,0.10,,2013-02-28 03:52:00,
2013-02-27 23:02:00,32.0,32.0,29.61,SE,139,0.0,3.0,99,0.00,,,0.10,,2013-02-28 04:02:00,
2013-02-27 23:11:00,32.0,32.0,29.61,SE,139,0.0,3.0,99,0.00,,,0.10,,2013-02-28 04:11:00,
2013-02-27 23:22:00,32.0,32.0,29.60,South,187,3.0,6.0,99,0.00,,,0.10,,2013-02-28 04:22:00,
2013-02-27 23:32:00,32.0,32.0,29.61,South,185,4.0,5.0,99,0.00,,,0.10,,2013-02-28 04:32:00,
2013-02-27 23:42:00,32.0,32.0,29.61,South,185,4.0,5.0,99,0.00,,,0.10,,2013-02-28 04:42:00,
2013-02-27 23:52:00,32.0,32.0,29.60,South,182,0.0,7.0,99,0.00,,,0.10,,2013-02-28 04:52:00,